Location: Unspecified
(0.0000°N, 0.0000°E)
Time: 11:32:20
(UTC+00:00)

Vanguard 2 - Pass Details

Date: 19 November 2019
Orbit: 553 x 2938 km, 32.9° (Epoch: 07 December)

Event Time Altitude Azimuth Distance (km) Brightness Sun altitude
Rises 05:57:26 0° 248° (WSW) 6,751 11.9 2.9°
Reaches altitude 10° 06:02:27 10° 254° (WSW) 5,604 11.5 4.0°
Maximum altitude 06:17:38 46° 321° (NW) 2,768 10.1 7.6°
Drops below altitude 10° 06:27:49 10° 32° (NNE) 3,815 11.3 10.0°
Sets 06:30:35 0° 39° (NE) 4,507 11.7 10.7°
